Weather History for KDBQ - January, 2005

Change the Weather History Date:

Saturday, January 1, 2005

  Actual Average Record
Temperature  
Mean Temperature 27 °F 19 °F  
Max Temperature 33 °F 27 °F 63 °F (1897)
Min Temperature 21 °F 12 °F -15 °F (1974)
Degree Days  
Heating Degree Days 38 46  
Month to date heating degree days 46  
Since 1 July heating degree days 2856  
Cooling Degree Days 0 0  
Month to date cooling degree days 0  
Year to date cooling degree days 0  
Moisture  
Dew Point 25 °F    
Average Humidity 85    
Maximum Humidity 100    
Minimum Humidity 65    
Precipitation  
Precipitation 0.54 in 0.04 in 2.58 in (1876)
Month to date precipitation 0.04  
Year to date precipitation 0.04  
Snow  
Snow 0.00 in 0.30 in - ()
Month to date snowfall 0.3  
Since 1 July snowfall 14.9  
Snow Depth -    
Sea Level Pressure  
Sea Level Pressure 30.25 in    
Wind  
Wind Speed 12 mph (ENE)    
Max Wind Speed 20 mph    
Max Gust Speed 26 mph    
Visibility 6 miles    
Events Fog , Rain    
T = Trace of Precipitation, MM = Missing Value Source: NWS Daily Summary

Daily Weather History Graph

Daily Weather History Graph

Search for Another Location

Airport or City:

Trip Planner

Search our weather history database for the weather conditions in past years. The results will help you decide how hot, cold, wet, or windy it might be!

Date:

Astronomy

Jan. 01, 2005 Rise Set
Actual Time 7:32 AM CST 4:41 PM CST
Civil Twilight 7:00 AM CST 5:12 PM CST
Nautical Twilight 6:25 AM CST 5:48 PM CST
Astronomical Twilight 5:50 AM CST 6:22 PM CST
Moon 10:38 PM CST (1/1) 11:05 AM CST (1/1)
Length of Visible Light 10h 12m
Length of Day
9h 08m
Waning Gibbous, 69% of the Moon is Illuminated
Jan 1
Waning Gibbous
Jan 3
Last Quarter
Jan 10
New
Jan 17
First Quarter
Jan 25
Full

Hourly Weather History & Observations

Time (CST) Temp. Windchill Dew Point Humidity Pressure Visibility Wind Dir Wind Speed Gust Speed Precip Events Conditions
12:55 AM 23.0 °F 10.1 °F 12.9 °F 65% 30.35 in 10.0 mi North 15.0 mph - N/A   Clear
1:55 AM 21.9 °F 11.0 °F 12.9 °F 68% 30.37 in 10.0 mi NNE 10.4 mph - N/A   Clear
2:55 AM 21.9 °F 9.2 °F 12.9 °F 68% 30.37 in 10.0 mi NNE 13.8 mph - N/A   Clear
3:55 AM 21.9 °F 11.0 °F 12.9 °F 68% 30.37 in 10.0 mi NE 10.4 mph - N/A   Clear
4:55 AM 21.0 °F 12.4 °F 12.9 °F 71% 30.41 in 10.0 mi NE 6.9 mph - N/A   Clear
5:55 AM 21.0 °F 10.6 °F 12.9 °F 71% 30.42 in 10.0 mi NE 9.2 mph - N/A   Clear
6:55 AM 21.0 °F 9.3 °F 12.9 °F 71% 30.44 in 10.0 mi ENE 11.5 mph - N/A   Clear
7:55 AM 21.0 °F 9.9 °F 12.9 °F 71% 30.43 in 10.0 mi ENE 10.4 mph - N/A   Clear
8:55 AM 21.9 °F 8.2 °F 14.0 °F 72% 30.43 in 10.0 mi ENE 16.1 mph - N/A   Overcast
9:55 AM 23.0 °F 10.6 °F 16.0 °F 74% 30.43 in 10.0 mi ENE 13.8 mph - 0.00 in   Overcast
10:55 AM 24.1 °F 13.7 °F 18.0 °F 77% 30.42 in 10.0 mi ENE 10.4 mph - 0.00 in   Overcast
11:55 AM 25.0 °F 12.6 °F 19.9 °F 81% 30.39 in 10.0 mi ENE 15.0 mph - N/A   Overcast
12:27 PM 26.6 °F 15.7 °F 19.4 °F 74% 30.33 in 10.0 mi ENE 12.7 mph - N/A   Overcast
12:55 PM 27.0 °F 15.2 °F 21.0 °F 78% 30.36 in 10.0 mi ENE 15.0 mph - N/A   Overcast
1:55 PM 28.9 °F 17.7 °F 21.9 °F 75% 30.34 in 10.0 mi East 15.0 mph - N/A   Overcast
2:55 PM 28.9 °F 18.6 °F 25.0 °F 85% 30.32 in 6.0 mi ENE 12.7 mph 17.3 mph 0.00 in   Overcast
3:37 PM 30.2 °F 20.2 °F 26.6 °F 86% 30.25 in 9.0 mi East 12.7 mph 20.7 mph N/A   Overcast
3:55 PM 30.0 °F 19.5 °F 27.0 °F 88% 30.29 in 5.0 mi East 13.8 mph - N/A   Overcast
4:28 PM 30.2 °F 18.9 °F 26.6 °F 86% 30.23 in 8.0 mi East 16.1 mph 21.9 mph N/A   Overcast
4:55 PM 30.9 °F 20.7 °F 28.0 °F 89% 30.27 in 9.0 mi East 13.8 mph 19.6 mph N/A   Overcast
5:55 PM 30.9 °F 20.7 °F 30.0 °F 96% 30.22 in 3.0 mi East 13.8 mph - 0.01 in Rain Light Freezing Rain
6:03 PM 30.2 °F 17.8 °F 30.2 °F 100% 30.16 in 3.0 mi East 19.6 mph 26.5 mph 0.03 in Rain Light Freezing Rain
6:13 PM 32.0 °F 21.2 °F 30.2 °F 93% 30.19 in 4.0 mi ESE 16.1 mph 25.3 mph 0.03 in Rain Light Freezing Rain
6:37 PM 32.0 °F 22.1 °F 30.2 °F 93% 30.18 in 4.0 mi ESE 13.8 mph 20.7 mph 0.06 in Rain Light Freezing Rain
6:55 PM 32.0 °F 22.1 °F 30.0 °F 92% 30.22 in 3.0 mi East 13.8 mph - 0.14 in Rain Light Freezing Rain
7:29 PM 32.0 °F - 30.2 °F 93% 30.18 in 2.5 mi North - - 0.10 in Rain Light Freezing Rain
7:36 PM 32.0 °F - 30.2 °F 93% 30.18 in 4.0 mi North - - 0.12 in Rain Light Freezing Rain
7:43 PM 32.0 °F - 30.2 °F 93% 30.17 in 4.0 mi North - - 0.13 in   Overcast
7:55 PM 32.0 °F - 30.0 °F 92% 30.21 in 4.0 mi North - - 0.17 in Rain Light Freezing Rain
8:18 PM 32.0 °F - 30.2 °F 93% 30.15 in 6.0 mi North - - 0.05 in Rain Light Freezing Rain
8:55 PM 32.0 °F - 30.9 °F 96% 30.17 in 5.0 mi North - - 0.06 in Rain Light Freezing Rain
9:55 PM 33.1 °F - 32.0 °F 96% 30.14 in 9.0 mi North - - 0.02 in   Overcast
10:12 PM 33.8 °F - 32.0 °F 93% 30.08 in 8.0 mi North - - N/A   Overcast
10:41 PM 33.8 °F - 32.0 °F 93% 30.07 in 2.0 mi North - - 0.01 in Rain Light Rain
10:55 PM 33.1 °F - 32.0 °F 96% 30.11 in 1.2 mi Calm Calm - 0.02 in Rain Light Rain
11:21 PM 33.8 °F - 33.8 °F 100% 30.05 in 2.0 mi Calm Calm - 0.12 in Rain Heavy Rain
11:30 PM 33.8 °F - 33.8 °F 100% 30.05 in 1.0 mi Calm Calm - 0.12 in Rain Light Rain
11:37 PM 33.8 °F - 33.8 °F 100% 30.05 in 0.5 mi Calm Calm - 0.12 in Fog , Rain Light Rain
11:55 PM 33.1 °F 24.4 °F 33.1 °F 100% 30.08 in 0.5 mi SSE 11.5 mph - 0.12 in Fog Fog